When you browse on this site, cookies collect data to enhance your experience and personalize the content and advertising you see.
Visit our Privacy Policy to learn more. By continuing to use the site, you agree to this use of cookies and data.
  • en Suisse
  • Liste des pays
  • À 7 jours
  • Température de l'eau
  • Carte météo
  • Widgets météo
  • user-avatar
    Se connecter

    Météo par heure à Sankt Pölten

    Ce jour, 18 Octobre, Vendredi

    Heure Température Précipitation Vent Pression Humidité
    00:00 +11°C° 0 mm 1 m/s 735 mmHg 90%
    01:00 +11°C° 0 mm 1 m/s 735 mmHg 90%
    02:00 +11°C° 0 mm 1 m/s 735 mmHg 91%
    03:00 +11°C° 0 mm 1 m/s 735 mmHg 91%
    04:00 +10°C° 0 mm 1 m/s 735 mmHg 92%
    05:00 +10°C° 0 mm 1 m/s 735 mmHg 92%
    06:00 +10°C° 0 mm 1 m/s 735 mmHg 92%
    07:00 +10°C° 0 mm 1 m/s 735 mmHg 93%
    08:00 +13°C° 0 mm 1 m/s 735 mmHg 83%
    09:00 +16°C° 0 mm 1 m/s 736 mmHg 73%
    10:00 +19°C° 0 mm 1 m/s 736 mmHg 63%
    11:00 +20°C° 0 mm 1 m/s 735 mmHg 60%
    12:00 +21°C° 0 mm 1 m/s 735 mmHg 56%
    13:00 +21°C° 0 mm 1 m/s 734 mmHg 53%
    14:00 +20°C° 0 mm 1 m/s 734 mmHg 58%
    15:00 +20°C° 0 mm 1 m/s 734 mmHg 62%
    16:00 +19°C° 0 mm 1 m/s 734 mmHg 67%
    17:00 +16°C° 0 mm 1 m/s 734 mmHg 72%
    18:00 +15°C° 0 mm 1 m/s 734 mmHg 77%
    19:00 +13°C° 0 mm 1 m/s 734 mmHg 82%
    20:00 +13°C° 0 mm 1 m/s 734 mmHg 83%
    21:00 +13°C° 0 mm 1 m/s 734 mmHg 84%
    22:00 +12°C° 0 mm 1 m/s 734 mmHg 86%
    23:00 +12°C° 0 mm 1 m/s 734 mmHg 86%

    Demain, 19 Octobre, Samedi

    Heure Température Précipitation Vent Pression Humidité
    00:00 +11°C° 0 mm 0 m/s 734 mmHg 86%
    01:00 +11°C° 0 mm 0 m/s 734 mmHg 87%
    02:00 +10°C° 0 mm 0 m/s 734 mmHg 88%
    03:00 +10°C° 0 mm 0 m/s 734 mmHg 90%
    04:00 +10°C° 0 mm 0 m/s 734 mmHg 91%
    05:00 +11°C° 0 mm 1 m/s 734 mmHg 91%
    06:00 +11°C° 0 mm 1 m/s 734 mmHg 92%
    07:00 +11°C° 0 mm 1 m/s 733 mmHg 92%
    08:00 +13°C° 0 mm 1 m/s 733 mmHg 86%
    09:00 +14°C° 0 mm 1 m/s 733 mmHg 80%
    10:00 +16°C° 0 mm 1 m/s 733 mmHg 74%
    11:00 +18°C° 0 mm 1 m/s 733 mmHg 72%
    12:00 +18°C° 0 mm 1 m/s 732 mmHg 70%
    13:00 +19°C° 0 mm 1 m/s 732 mmHg 68%
    14:00 +19°C° 0 mm 1 m/s 732 mmHg 71%
    15:00 +18°C° 0 mm 1 m/s 732 mmHg 75%
    16:00 +18°C° 0 mm 1 m/s 732 mmHg 78%
    17:00 +16°C° 0 mm 1 m/s 732 mmHg 82%
    18:00 +14°C° 0 mm 1 m/s 732 mmHg 85%
    19:00 +12°C° 0 mm 0 m/s 732 mmHg 89%
    20:00 +13°C° 0 mm 1 m/s 733 mmHg 88%
    21:00 +13°C° 0 mm 1 m/s 733 mmHg 88%
    22:00 +12°C° 0 mm 1 m/s 733 mmHg 88%
    23:00 +12°C° 0 mm 1 m/s 733 mmHg 88%

    Après-demain, 20 Octobre, Dimanche

    Heure Température Précipitation Vent Pression Humidité
    00:00 +11°C° 0 mm 0 m/s 733 mmHg 88%
    01:00 +11°C° 0 mm 0 m/s 734 mmHg 88%
    02:00 +11°C° 0 mm 0 m/s 734 mmHg 89%
    03:00 +11°C° 0 mm 1 m/s 734 mmHg 89%
    04:00 +11°C° 0 mm 1 m/s 734 mmHg 90%
    05:00 +11°C° 0 mm 1 m/s 733 mmHg 91%
    06:00 +11°C° 0 mm 1 m/s 733 mmHg 92%
    07:00 +11°C° 0 mm 1 m/s 733 mmHg 93%
    08:00 +13°C° 0 mm 1 m/s 733 mmHg 86%
    09:00 +15°C° 0 mm 1 m/s 733 mmHg 80%
    10:00 +17°C° 0 mm 2 m/s 733 mmHg 74%
    11:00 +18°C° 0 mm 2 m/s 733 mmHg 72%
    12:00 +18°C° 0 mm 2 m/s 733 mmHg 70%
    13:00 +19°C° 0 mm 2 m/s 732 mmHg 68%
    14:00 +19°C° 0 mm 2 m/s 732 mmHg 72%
    15:00 +19°C° 0 mm 1 m/s 732 mmHg 75%
    16:00 +18°C° 0 mm 1 m/s 732 mmHg 79%
    17:00 +16°C° 0 mm 1 m/s 732 mmHg 83%
    18:00 +15°C° 0 mm 1 m/s 732 mmHg 86%
    19:00 +14°C° 0 mm 1 m/s 732 mmHg 90%
    20:00 +14°C° 0 mm 1 m/s 732 mmHg 90%
    21:00 +14°C° 0 mm 1 m/s 732 mmHg 89%
    22:00 +13°C° 0 mm 1 m/s 732 mmHg 88%
    23:00 +13°C° 0 mm 1 m/s 732 mmHg 88%

    21 Octobre, Lundi

    Heure Température Précipitation Vent Pression Humidité
    00:00 +13°C° 0 mm 1 m/s 732 mmHg 87%
    01:00 +13°C° 0 mm 1 m/s 732 mmHg 86%
    02:00 +13°C° 0 mm 1 m/s 733 mmHg 85%
    03:00 +13°C° 0 mm 1 m/s 733 mmHg 84%
    04:00 +13°C° 0 mm 1 m/s 734 mmHg 83%
    05:00 +13°C° 0 mm 1 m/s 734 mmHg 82%
    06:00 +13°C° 0 mm 1 m/s 734 mmHg 80%
    07:00 +13°C° 0 mm 1 m/s 735 mmHg 79%
    08:00 +15°C° 0 mm 1 m/s 735 mmHg 74%
    09:00 +18°C° 0 mm 1 m/s 736 mmHg 68%
    10:00 +20°C° 0 mm 1 m/s 736 mmHg 63%
    11:00 +20°C° 0 mm 2 m/s 737 mmHg 62%
    12:00 +20°C° 0 mm 2 m/s 737 mmHg 61%
    13:00 +21°C° 0 mm 2 m/s 738 mmHg 59%
    14:00 +20°C° 0 mm 2 m/s 738 mmHg 64%
    15:00 +19°C° 0 mm 2 m/s 738 mmHg 69%
    16:00 +18°C° 0 mm 2 m/s 738 mmHg 74%
    17:00 +17°C° 0 mm 2 m/s 739 mmHg 77%
    18:00 +17°C° 0 mm 2 m/s 739 mmHg 81%
    19:00 +16°C° 0 mm 2 m/s 740 mmHg 84%
    20:00 +15°C° 0 mm 1 m/s 740 mmHg 84%
    21:00 +15°C° 0 mm 1 m/s 740 mmHg 83%
    22:00 +15°C° 0 mm 1 m/s 741 mmHg 83%
    23:00 +14°C° 0 mm 1 m/s 741 mmHg 86%

    22 Octobre, Mardi

    Heure Température Précipitation Vent Pression Humidité
    00:00 +13°C° 0 mm 1 m/s 741 mmHg 89%
    01:00 +12°C° 0 mm 1 m/s 741 mmHg 92%
    02:00 +12°C° 0 mm 1 m/s 741 mmHg 92%
    03:00 +12°C° 0 mm 1 m/s 741 mmHg 92%
    04:00 +10°C° 0 mm 0 m/s 742 mmHg 92%
    05:00 +10°C° 0 mm 0 m/s 742 mmHg 91%
    06:00 +10°C° 0 mm 0 m/s 742 mmHg 91%
    07:00 +10°C° 0 mm 0 m/s 742 mmHg 90%
    08:00 +13°C° 0 mm 1 m/s 742 mmHg 83%
    09:00 +14°C° 0 mm 1 m/s 742 mmHg 75%
    10:00 +16°C° 0 mm 1 m/s 742 mmHg 68%
    11:00 +17°C° 0 mm 2 m/s 742 mmHg 65%
    12:00 +18°C° 0 mm 2 m/s 742 mmHg 62%
    13:00 +19°C° 0 mm 2 m/s 742 mmHg 59%
    14:00 +18°C° 0 mm 2 m/s 742 mmHg 62%
    15:00 +18°C° 0 mm 2 m/s 741 mmHg 65%
    16:00 +17°C° 0 mm 2 m/s 741 mmHg 68%
    17:00 +16°C° 0 mm 2 m/s 741 mmHg 73%
    18:00 +14°C° 0 mm 2 m/s 741 mmHg 78%
    19:00 +13°C° 0 mm 2 m/s 741 mmHg 82%
    20:00 +13°C° 0 mm 2 m/s 741 mmHg 85%
    21:00 +12°C° 0 mm 2 m/s 741 mmHg 87%
    22:00 +12°C° 0 mm 2 m/s 741 mmHg 89%
    23:00 +10°C° 0 mm 2 m/s 741 mmHg 90%

    23 Octobre, Mercredi

    Heure Température Précipitation Vent Pression Humidité
    00:00 +10°C° 0 mm 2 m/s 740 mmHg 92%
    01:00 +11°C° 0 mm 1 m/s 740 mmHg 93%
    02:00 +10°C° 0 mm 1 m/s 740 mmHg 94%
    03:00 +10°C° 0 mm 1 m/s 740 mmHg 95%
    04:00 +10°C° 0 mm 1 m/s 739 mmHg 95%
    05:00 +10°C° 0 mm 1 m/s 739 mmHg 96%
    06:00 +10°C° 0 mm 1 m/s 739 mmHg 96%
    07:00 +10°C° 0 mm 1 m/s 739 mmHg 96%
    08:00 +12°C° 0 mm 1 m/s 739 mmHg 89%
    09:00 +14°C° 0 mm 1 m/s 739 mmHg 83%
    10:00 +16°C° 0 mm 1 m/s 738 mmHg 76%
    11:00 +17°C° 0 mm 2 m/s 738 mmHg 71%
    12:00 +19°C° 0 mm 2 m/s 738 mmHg 66%
    13:00 +20°C° 0 mm 2 m/s 737 mmHg 61%
    14:00 +20°C° 0 mm 2 m/s 737 mmHg 65%
    15:00 +20°C° 0 mm 1 m/s 737 mmHg 69%
    16:00 +20°C° 0 mm 1 m/s 736 mmHg 73%
    17:00 +18°C° 0 mm 1 m/s 736 mmHg 79%
    18:00 +16°C° 0 mm 1 m/s 736 mmHg 85%
    19:00 +14°C° 0 mm 1 m/s 736 mmHg 90%
    20:00 +14°C° 0 mm 1 m/s 736 mmHg 91%
    21:00 +13°C° 0 mm 1 m/s 736 mmHg 92%
    22:00 +13°C° 0 mm 1 m/s 736 mmHg 92%
    23:00 +13°C° 0 mm 1 m/s 736 mmHg 93%
    Voir plus